CCM37JW LFKF-LFML

Flight info

Callsign CCM37JW
Flight time 0h 52m
Altitude 24000
Route AJO Z154 TINOT
Aircraft A320/M-SDE3FGHIRWY/LB1

Departure

Time 2026-05-04 19:10
Airport Figari Sud-Corse Airport (LFKF)

Arrival

Time 2026-05-04 20:03
Airport Marseille Provence Airport (LFML)
Time Latitude Longitude Altitude Speed Heading
2026-05-04 18:44 41.49967 9.09793 72 ft 0 kts 137°
2026-05-04 19:01 41.49969 9.09790 71 ft 3 kts 137°
2026-05-04 19:01 41.49988 9.09768 63 ft 2 kts 137°
2026-05-04 19:01 41.50002 9.09746 65 ft 4 kts 99°
2026-05-04 19:02 41.49996 9.09718 63 ft 3 kts 47°
2026-05-04 19:02 41.49987 9.09705 61 ft 0 kts 47°
2026-05-04 19:04 41.49992 9.09712 61 ft 2 kts 47°
2026-05-04 19:04 41.50003 9.09728 65 ft 2 kts 47°
2026-05-04 19:05 41.50013 9.09743 65 ft 2 kts 47°
2026-05-04 19:05 41.50038 9.09779 70 ft 8 kts 47°
2026-05-04 19:05 41.50089 9.09812 71 ft 9 kts 355°
2026-05-04 19:05 41.50135 9.09768 64 ft 8 kts 318°
2026-05-04 19:06 41.50172 9.09723 71 ft 7 kts 317°
2026-05-04 19:06 41.50200 9.09666 69 ft 12 kts 268°
2026-05-04 19:06 41.50128 9.09554 67 ft 16 kts 227°
2026-05-04 19:06 41.50053 9.09444 67 ft 18 kts 227°
2026-05-04 19:07 41.49967 9.09319 70 ft 18 kts 227°
2026-05-04 19:07 41.49878 9.09190 69 ft 22 kts 227°
2026-05-04 19:07 41.49755 9.09011 64 ft 29 kts 227°
2026-05-04 19:07 41.49612 9.08802 53 ft 20 kts 228°
2026-05-04 19:08 41.49533 9.08702 49 ft 12 kts 207°
2026-05-04 19:08 41.49476 9.08677 47 ft 8 kts 197°
2026-05-04 19:08 41.49462 9.08663 47 ft 3 kts 246°
2026-05-04 19:08 41.49475 9.08629 47 ft 3 kts 330°
2026-05-04 19:09 41.49494 9.08634 47 ft 5 kts 27°
2026-05-04 19:09 41.49515 9.08662 48 ft 1 kts 49°
2026-05-04 19:10 41.49549 9.08713 50 ft 35 kts 48°
2026-05-04 19:10 41.49876 9.09190 69 ft 101 kts 47°
2026-05-04 19:10 41.50465 9.10066 165 ft 142 kts 49°
2026-05-04 19:10 41.51117 9.10995 845 ft 137 kts 48°
2026-05-04 19:11 41.51785 9.11931 1396 ft 141 kts 47°
2026-05-04 19:11 41.52462 9.12866 1892 ft 144 kts 46°
2026-05-04 19:11 41.53160 9.13844 2339 ft 147 kts 48°
2026-05-04 19:11 41.53849 9.14855 2783 ft 148 kts 55°
2026-05-04 19:12 41.54458 9.15964 3202 ft 150 kts 56°
2026-05-04 19:12 41.55622 9.18048 3581 ft 188 kts 55°
2026-05-04 19:12 41.56751 9.20051 3987 ft 214 kts 54°
2026-05-04 19:13 41.57590 9.21784 4330 ft 231 kts 72°
2026-05-04 19:13 41.57634 9.23905 4785 ft 234 kts 115°
2026-05-04 19:13 41.56674 9.25565 5455 ft 224 kts 155°
2026-05-04 19:13 41.55210 9.25988 6197 ft 216 kts 193°
2026-05-04 19:14 41.54284 9.25542 6664 ft 216 kts 213°
2026-05-04 19:14 41.53285 9.24079 7404 ft 218 kts 244°
2026-05-04 19:14 41.52882 9.22104 8182 ft 222 kts 254°
2026-05-04 19:14 41.52390 9.19433 9204 ft 225 kts 253°
2026-05-04 19:15 41.52122 9.18061 9737 ft 227 kts 253°
2026-05-04 19:15 41.51714 9.16016 10469 ft 229 kts 252°
2026-05-04 19:15 41.51155 9.13255 11464 ft 232 kts 253°
2026-05-04 19:15 41.50778 9.11183 12187 ft 234 kts 255°
2026-05-04 19:16 41.50540 9.09744 12682 ft 236 kts 256°
2026-05-04 19:16 41.50211 9.07587 13376 ft 243 kts 261°
2026-05-04 19:16 41.50510 9.05265 13608 ft 273 kts 295°
2026-05-04 19:16 41.51864 9.03319 13843 ft 305 kts 321°
2026-05-04 19:17 41.53760 9.01835 14013 ft 331 kts 327°
2026-05-04 19:17 41.55852 9.00268 14147 ft 353 kts 327°
2026-05-04 19:17 41.58055 8.98605 14310 ft 373 kts 327°
2026-05-04 19:17 41.60316 8.96833 14792 ft 378 kts 323°
2026-05-04 19:18 41.62455 8.94767 15379 ft 381 kts 318°
2026-05-04 19:18 41.64478 8.92492 15970 ft 383 kts 315°
2026-05-04 19:18 41.66464 8.90083 16558 ft 387 kts 314°
2026-05-04 19:18 41.68446 8.87626 17163 ft 391 kts 314°
2026-05-04 19:19 41.70457 8.85156 17765 ft 395 kts 314°
2026-05-04 19:19 41.72516 8.82686 18361 ft 399 kts 315°
2026-05-04 19:19 41.74605 8.80220 18886 ft 402 kts 313°
2026-05-04 19:19 41.76474 8.77457 19430 ft 400 kts 303°
2026-05-04 19:20 41.77928 8.74291 19961 ft 398 kts 292°
2026-05-04 19:20 41.78973 8.70862 20513 ft 399 kts 288°
2026-05-04 19:20 41.79966 8.67375 21009 ft 402 kts 288°
2026-05-04 19:20 41.80949 8.63916 21518 ft 404 kts 288°
2026-05-04 19:21 41.81955 8.60386 22004 ft 406 kts 288°
2026-05-04 19:21 41.82966 8.56841 22486 ft 409 kts 288°
2026-05-04 19:21 41.83982 8.53273 22949 ft 411 kts 288°
2026-05-04 19:21 41.85001 8.49684 23400 ft 413 kts 288°
2026-05-04 19:22 41.86025 8.46070 23801 ft 415 kts 287°
2026-05-04 19:22 41.87053 8.42448 23979 ft 415 kts 287°
2026-05-04 19:22 41.88089 8.38798 24026 ft 424 kts 287°
2026-05-04 19:22 41.89144 8.35065 24030 ft 430 kts 287°
2026-05-04 19:23 41.90207 8.31306 24042 ft 432 kts 288°
2026-05-04 19:23 41.91273 8.27526 24032 ft 433 kts 287°
2026-05-04 19:23 41.92340 8.23737 24032 ft 434 kts 287°
2026-05-04 19:23 41.93406 8.19946 24031 ft 434 kts 287°
2026-05-04 19:24 41.94468 8.16154 24030 ft 434 kts 287°
2026-05-04 19:24 41.95530 8.12365 24029 ft 434 kts 287°
2026-05-04 19:24 41.96595 8.08573 24029 ft 434 kts 287°
2026-05-04 19:24 41.97658 8.04778 24029 ft 434 kts 287°
2026-05-04 19:25 41.98715 8.00988 24025 ft 433 kts 287°
2026-05-04 19:25 41.99772 7.97193 24023 ft 433 kts 287°
2026-05-04 19:25 42.00825 7.93398 24034 ft 433 kts 287°
2026-05-04 19:25 42.01875 7.89611 24034 ft 432 kts 287°
2026-05-04 19:26 42.02923 7.85824 24029 ft 432 kts 287°
2026-05-04 19:26 42.03968 7.82038 24029 ft 432 kts 287°
2026-05-04 19:26 42.05010 7.78256 24025 ft 431 kts 287°
2026-05-04 19:26 42.06053 7.74471 24021 ft 431 kts 287°
2026-05-04 19:27 42.07098 7.70687 24018 ft 431 kts 287°
2026-05-04 19:27 42.08142 7.66903 24018 ft 431 kts 287°
2026-05-04 19:27 42.09184 7.63122 24016 ft 431 kts 287°
2026-05-04 19:27 42.10224 7.59339 24019 ft 431 kts 287°
2026-05-04 19:28 42.11261 7.55551 24020 ft 431 kts 287°
2026-05-04 19:28 42.12292 7.51759 24020 ft 431 kts 287°
2026-05-04 19:28 42.13320 7.47973 24017 ft 431 kts 287°
2026-05-04 19:28 42.14349 7.44184 24016 ft 431 kts 287°
2026-05-04 19:29 42.15380 7.40394 24016 ft 431 kts 287°
2026-05-04 19:29 42.16398 7.36653 24014 ft 431 kts 287°
2026-05-04 19:29 42.17430 7.32862 24018 ft 431 kts 287°
2026-05-04 19:29 42.18461 7.29068 24007 ft 431 kts 287°
2026-05-04 19:30 42.19489 7.25269 24002 ft 432 kts 287°
2026-05-04 19:30 42.20514 7.21463 24000 ft 432 kts 287°
2026-05-04 19:30 42.21539 7.17652 24001 ft 432 kts 287°
2026-05-04 19:30 42.22564 7.13842 23995 ft 432 kts 287°
2026-05-04 19:31 42.23591 7.10030 24000 ft 432 kts 287°
2026-05-04 19:31 42.24618 7.06211 24006 ft 433 kts 287°
2026-05-04 19:31 42.25641 7.02398 24005 ft 433 kts 287°
2026-05-04 19:31 42.26662 6.98578 23999 ft 433 kts 287°
2026-05-04 19:32 42.27683 6.94754 23994 ft 433 kts 287°
2026-05-04 19:32 42.28701 6.90928 23995 ft 433 kts 287°
2026-05-04 19:32 42.29717 6.87104 23998 ft 433 kts 287°
2026-05-04 19:32 42.30734 6.83278 24006 ft 433 kts 286°
2026-05-04 19:33 42.31749 6.79451 24001 ft 433 kts 286°
2026-05-04 19:33 42.32765 6.75617 23997 ft 433 kts 286°
2026-05-04 19:33 42.33778 6.71785 23998 ft 433 kts 286°
2026-05-04 19:33 42.34790 6.67951 23991 ft 433 kts 286°
2026-05-04 19:34 42.35802 6.64113 23989 ft 433 kts 286°
2026-05-04 19:34 42.36812 6.60272 23989 ft 433 kts 286°
2026-05-04 19:34 42.37817 6.56437 23988 ft 433 kts 286°
2026-05-04 19:34 42.38825 6.52595 23983 ft 433 kts 286°
2026-05-04 19:35 42.39833 6.48753 23983 ft 433 kts 286°
2026-05-04 19:35 42.40838 6.44913 24000 ft 433 kts 286°
2026-05-04 19:35 42.41843 6.41070 23995 ft 433 kts 286°
2026-05-04 19:35 42.42848 6.37227 23989 ft 433 kts 286°
2026-05-04 19:36 42.43850 6.33384 23987 ft 433 kts 286°
2026-05-04 19:36 42.44850 6.29537 23991 ft 433 kts 286°
2026-05-04 19:36 42.45846 6.25698 23988 ft 427 kts 286°
2026-05-04 19:36 42.46837 6.21878 23995 ft 433 kts 286°
2026-05-04 19:37 42.47833 6.18024 23991 ft 434 kts 286°
2026-05-04 19:37 42.48830 6.14162 23991 ft 435 kts 286°
2026-05-04 19:37 42.49829 6.10290 23991 ft 435 kts 286°
2026-05-04 19:37 42.50824 6.06427 24001 ft 435 kts 285°
2026-05-04 19:38 42.51820 6.02555 23886 ft 436 kts 285°
2026-05-04 19:38 42.52815 5.98676 23656 ft 435 kts 285°
2026-05-04 19:38 42.53807 5.94800 23402 ft 434 kts 285°
2026-05-04 19:38 42.54798 5.90934 23129 ft 433 kts 285°
2026-05-04 19:39 42.55785 5.87081 22859 ft 432 kts 285°
2026-05-04 19:39 42.56764 5.83240 22591 ft 430 kts 285°
2026-05-04 19:39 42.57737 5.79407 22326 ft 429 kts 285°
2026-05-04 19:39 42.58705 5.75580 22061 ft 428 kts 285°
2026-05-04 19:40 42.59668 5.71770 21797 ft 427 kts 285°
2026-05-04 19:40 42.60634 5.67963 21558 ft 426 kts 285°
2026-05-04 19:40 42.61599 5.64166 21305 ft 425 kts 285°
2026-05-04 19:40 42.62560 5.60376 21043 ft 424 kts 285°
2026-05-04 19:41 42.63515 5.56593 20789 ft 423 kts 285°
2026-05-04 19:41 42.64462 5.52829 20439 ft 418 kts 285°
2026-05-04 19:41 42.65395 5.49109 19786 ft 414 kts 285°
2026-05-04 19:41 42.66317 5.45422 19160 ft 411 kts 285°
2026-05-04 19:42 42.67231 5.41758 18553 ft 408 kts 285°
2026-05-04 19:42 42.68142 5.38125 17925 ft 405 kts 286°
2026-05-04 19:42 42.69346 5.34666 17365 ft 405 kts 297°
2026-05-04 19:42 42.71018 5.31581 16818 ft 407 kts 308°
2026-05-04 19:43 42.73132 5.28978 16377 ft 414 kts 320°
2026-05-04 19:43 42.75578 5.26889 15904 ft 415 kts 326°
2026-05-04 19:43 42.78063 5.24914 15440 ft 413 kts 326°
2026-05-04 19:43 42.80498 5.22973 14987 ft 410 kts 326°
2026-05-04 19:44 42.82980 5.20990 14523 ft 407 kts 326°
2026-05-04 19:44 42.85412 5.19044 14064 ft 404 kts 326°
2026-05-04 19:44 42.87790 5.17139 13587 ft 401 kts 326°
2026-05-04 19:44 42.90189 5.15215 13116 ft 398 kts 326°
2026-05-04 19:45 42.92569 5.13308 12672 ft 396 kts 326°
2026-05-04 19:45 42.95088 5.11775 12215 ft 399 kts 342°
2026-05-04 19:45 42.97861 5.11336 11761 ft 404 kts 359°
2026-05-04 19:45 43.00653 5.11590 11317 ft 401 kts
2026-05-04 19:46 43.03427 5.11893 10998 ft 399 kts
2026-05-04 19:46 43.06198 5.12208 10965 ft 400 kts
2026-05-04 19:46 43.08961 5.12310 10832 ft 393 kts 354°
2026-05-04 19:46 43.11674 5.12040 10275 ft 388 kts 353°
2026-05-04 19:47 43.14305 5.11746 10149 ft 371 kts 352°
2026-05-04 19:47 43.16819 5.11459 10027 ft 355 kts 353°
2026-05-04 19:47 43.19211 5.11188 9900 ft 333 kts 352°
2026-05-04 19:47 43.21468 5.10956 9593 ft 320 kts 354°
2026-05-04 19:48 43.23657 5.10719 9363 ft 312 kts 353°
2026-05-04 19:48 43.25802 5.10465 9015 ft 309 kts 352°
2026-05-04 19:48 43.27945 5.10218 8561 ft 309 kts 353°
2026-05-04 19:48 43.30091 5.09968 8161 ft 308 kts 354°
2026-05-04 19:49 43.32210 5.09700 7840 ft 303 kts 353°
2026-05-04 19:49 43.34287 5.09405 7505 ft 299 kts 353°
2026-05-04 19:49 43.36316 5.08896 7132 ft 295 kts 336°
2026-05-04 19:49 43.38049 5.07466 6736 ft 290 kts 320°
2026-05-04 19:50 43.39115 5.06311 6457 ft 289 kts 318°
2026-05-04 19:50 43.41177 5.04002 5865 ft 288 kts 318°
2026-05-04 19:50 43.42721 5.02248 5434 ft 287 kts 318°
2026-05-04 19:50 43.44253 5.00496 5064 ft 285 kts 318°
2026-05-04 19:51 43.45780 4.98744 4999 ft 287 kts 317°
2026-05-04 19:51 43.47315 4.96982 5005 ft 288 kts 318°
2026-05-04 19:51 43.48851 4.95216 5012 ft 288 kts 317°
2026-05-04 19:51 43.50421 4.93459 5011 ft 293 kts 317°
2026-05-04 19:52 43.51991 4.91740 5005 ft 280 kts 319°
2026-05-04 19:52 43.53462 4.90117 5007 ft 263 kts 318°
2026-05-04 19:52 43.54849 4.88562 5006 ft 250 kts 318°
2026-05-04 19:52 43.56183 4.87065 5007 ft 246 kts 318°
2026-05-04 19:53 43.57510 4.85579 5007 ft 246 kts 317°
2026-05-04 19:53 43.58836 4.84094 5009 ft 245 kts 318°
2026-05-04 19:53 43.60162 4.82609 5004 ft 245 kts 318°
2026-05-04 19:53 43.61539 4.81215 4998 ft 247 kts 333°
2026-05-04 19:54 43.63209 4.80741 4989 ft 248 kts
2026-05-04 19:54 43.64806 4.81448 4677 ft 239 kts 40°
2026-05-04 19:54 43.65842 4.83117 4340 ft 224 kts 74°
2026-05-04 19:54 43.66018 4.85131 4041 ft 205 kts 106°
2026-05-04 19:55 43.65569 4.86950 4005 ft 200 kts 120°
2026-05-04 19:55 43.64924 4.88651 4006 ft 200 kts 122°
2026-05-04 19:55 43.64259 4.90316 4005 ft 192 kts 123°
2026-05-04 19:55 43.63640 4.91877 4002 ft 180 kts 123°
2026-05-04 19:56 43.63027 4.93364 4005 ft 177 kts 128°
2026-05-04 19:56 43.62291 4.94706 4008 ft 175 kts 134°
2026-05-04 19:56 43.61484 4.95962 4000 ft 174 kts 134°
2026-05-04 19:56 43.60656 4.97184 4003 ft 174 kts 135°
2026-05-04 19:57 43.59818 4.98397 4008 ft 175 kts 135°
2026-05-04 19:57 43.58975 4.99612 3954 ft 176 kts 135°
2026-05-04 19:57 43.58130 5.00825 3779 ft 174 kts 135°
2026-05-04 19:57 43.57575 5.01622 3643 ft 173 kts 135°
2026-05-04 19:58 43.56467 5.03210 3361 ft 171 kts 134°
2026-05-04 19:58 43.55645 5.04390 3146 ft 169 kts 134°
2026-05-04 19:58 43.55109 5.05157 2999 ft 167 kts 133°
2026-05-04 19:58 43.54051 5.06673 2675 ft 161 kts 132°
2026-05-04 19:59 43.53544 5.07399 2529 ft 156 kts 131°
2026-05-04 19:59 43.52829 5.08419 2336 ft 141 kts 131°
2026-05-04 19:59 43.52165 5.09371 2154 ft 135 kts 131°
2026-05-04 19:59 43.51519 5.10295 1978 ft 133 kts 132°
2026-05-04 20:00 43.50878 5.11203 1808 ft 132 kts 132°
2026-05-04 20:00 43.50242 5.12108 1643 ft 131 kts 132°
2026-05-04 20:00 43.49606 5.13021 1425 ft 133 kts 131°
2026-05-04 20:00 43.48974 5.13927 1292 ft 131 kts 131°
2026-05-04 20:01 43.48349 5.14828 1070 ft 130 kts 131°
2026-05-04 20:01 43.47713 5.15741 858 ft 132 kts 132°
2026-05-04 20:01 43.47075 5.16647 690 ft 130 kts 130°
2026-05-04 20:01 43.46442 5.17536 541 ft 129 kts 129°
2026-05-04 20:02 43.45812 5.18439 351 ft 132 kts 130°
2026-05-04 20:02 43.45184 5.19340 162 ft 128 kts 128°
2026-05-04 20:02 43.44571 5.20216 21 ft 125 kts 130°
2026-05-04 20:02 43.44051 5.20973 22 ft 86 kts 135°
2026-05-04 20:03 43.43744 5.21404 36 ft 49 kts 134°
2026-05-04 20:03 43.43512 5.21732 43 ft 46 kts 134°
2026-05-04 20:03 43.43397 5.21892 48 ft 26 kts 134°
2026-05-04 20:03 43.43332 5.22115 52 ft 19 kts 90°
2026-05-04 20:04 43.43343 5.22234 51 ft 12 kts 67°
2026-05-04 20:04 43.43415 5.22280 53 ft 14 kts 351°
2026-05-04 20:04 43.43500 5.22218 50 ft 14 kts 329°
2026-05-04 20:04 43.43588 5.22149 48 ft 15 kts 330°
2026-05-04 20:05 43.43677 5.22077 44 ft 15 kts 330°
2026-05-04 20:05 43.43761 5.22025 43 ft 11 kts 358°
2026-05-04 20:05 43.43818 5.22075 43 ft 8 kts 44°
2026-05-04 20:05 43.43861 5.22133 43 ft 8 kts 46°
2026-05-04 20:06 43.43865 5.22188 43 ft 6 kts 114°
2026-05-04 20:06 43.43845 5.22221 43 ft 4 kts 101°
2026-05-04 20:06 43.43852 5.22258 44 ft 5 kts 73°
2026-05-04 20:06 43.43860 5.22296 45 ft 2 kts 74°
2026-05-04 20:07 43.43861 5.22302 45 ft 0 kts 74°